[[{"header":{"parameterUnit":"m.s-1","parameterCategory":1,"la1":30.2991,"la2":30.254,"lo1":-89.0895,"lo2":-89.0444,"dy":0.0017,"dx":0.0017,"nx":28,"ny":28,"refTime":"2025-11-26T03:00:00:Z","depth":0,"parameterNumber":2,"parameterNumberName":"U-component_of_WINDS"},"data":[0,0,0,0,0,0,0,0,0,0,0,0,0,0,0,0,0,0,0,0,0,0,0,0,0,0,0,0,0,0,0,0,0,0,0,0,0,0,0,0,0,0,0,0,0,0,0,0,0,0,0,0,0,0,0,0,0,0,2.0491,2.0491,0,2.0535,2.0535,2.0536,2.0487,2.0485,2.0484,2.0482,2.053,2.0533,2.0536,0,0,0,0,0,0,0,0,0,0,0,0,0,2.037,2.0373,2.0491,2.0491,2.0492,2.0535,2.0535,2.0536,2.0488,2.0485,2.0483,2.0481,2.0529,2.0533,2.0536,0,0,0,0,0,0,0,0,0,0,0,0,0,2.0419,2.0374,2.0491,2.0473,2.0472,2.0534,2.0535,2.0536,2.0488,2.0485,2.0483,2.048,2.0528,2.0532,2.0537,2.062,0,0,2.055,2.0552,0,0,0,0,0,0,0,0,2.0417,2.0424,2.0475,2.0474,2.0473,2.0503,2.051,2.0564,2.0489,2.0482,2.0482,2.0479,2.0523,2.0528,2.0542,2.0622,2.0624,2.0551,2.0554,2.0555,2.0557,0,0,0,0,0,0,0,2.0413,2.0422,2.0508,2.0476,2.0475,2.0464,2.0468,2.052,2.0518,2.0482,2.0479,2.0485,2.0522,2.0538,2.0543,2.0625,2.0551,2.0555,2.0557,2.0559,2.0779,2.0782,0,0,0,0,0,0,2.0411,2.0419,2.0507,2.051,2.0437,2.0469,2.0473,2.0496,2.0517,2.0518,2.0487,2.0482,2.0532,2.0538,2.0545,2.0646,2.0555,2.056,2.0562,2.0776,2.0779,2.0783,0,0,0,0,0,0,2.0409,2.042,2.0505,2.0464,2.0474,2.0474,2.05,2.0498,2.0514,2.052,2.052,2.0503,2.053,2.0538,2.0602,2.0647,2.0562,2.0566,2.0772,2.0777,2.0781,2.0847,0,0,0,0,0,0,2.0406,2.0419,2.0449,2.0465,2.0476,2.0561,2.0503,2.0501,2.0522,2.0516,2.0536,2.0537,2.0528,2.0596,2.0607,2.0651,2.0569,2.0768,2.0774,2.078,2.0841,2.0854,2.0864,0,0,0,0,0,2.0402,2.0466,2.0451,2.0462,2.0514,2.0563,2.057,2.0558,2.0525,2.0557,2.0562,2.0536,2.064,2.0603,2.0614,2.0661,2.0765,2.0772,2.0779,2.0836,2.0851,2.0864,0,0,0,0,0,0,2.0457,2.0468,2.0451,2.0523,2.0542,2.0555,2.0594,2.0574,2.0604,2.0598,2.0583,2.0588,2.0656,2.0665,2.0623,2.0745,2.0697,2.0707,2.0737,2.0751,2.0763,2.076,2.0573,0,0,0,0,0,2.0478,2.0515,2.0523,2.0586,2.0596,2.0594,2.0615,2.0604,2.0624,2.0633,2.0642,2.0663,2.0701,2.0726,2.0761,2.0842,2.0847,2.088,2.0892,2.0901,2.0911,2.0957,2.0973,2.0806,2.0806,2.0806,0,0,2.052,2.0531,2.0556,2.0597,2.0611,2.0653,2.0601,2.0646,2.0678,2.064,2.0701,2.0709,2.0732,2.0805,2.0838,2.0815,2.0958,2.091,2.0918,2.0922,2.0966,2.0982,2.0996,2.0811,2.081,2.0809,0,0,2.062,2.0631,2.0685,2.07,2.0722,2.072,2.0734,2.075,2.0753,2.0814,2.0788,2.0825,2.089,2.0908,2.0926,2.1036,2.1014,2.1047,2.1109,2.1154,2.1167,2.1179,2.122,2.1235,2.1056,2.1056,2.1056,0,2.0671,2.0731,2.0716,2.0764,2.0784,2.0751,2.0808,2.0824,2.0856,2.0872,2.0845,2.0927,2.094,2.1019,2.1046,2.106,2.1077,2.1045,2.1166,2.1178,2.1188,2.1228,2.1243,2.106,2.106,2.1059,2.1059,0,2.0794,2.0836,2.0877,2.091,2.0934,2.0986,2.0981,2.1008,2.0996,2.0998,2.1062,2.1077,2.1115,2.1133,2.1121,2.1211,2.1196,2.1168,2.112,2.1209,2.1245,2.126,2.1066,2.1065,2.1063,2.1062,0,0,2.0929,2.0953,2.0969,2.0984,2.1007,2.104,2.1092,2.1129,2.1154,2.1178,2.1222,2.1279,2.1253,2.1274,2.1264,2.1304,2.1393,2.1271,2.1272,2.1295,2.1496,2.1518,2.1536,2.1378,2.1381,2.1383,2.1495,0,2.1031,2.1119,2.1108,2.1193,2.1234,2.1205,2.125,2.127,2.1274,2.131,2.1314,2.1355,2.1317,2.133,2.1367,2.1374,2.1433,2.1366,2.1422,2.1424,2.1419,2.1554,2.1578,2.1682,2.1509,2.1511,2.1513,0,2.1161,2.119,2.1279,2.1298,2.1314,2.1355,2.139,2.1424,2.1447,2.1447,2.1471,2.1455,2.151,2.146,2.1536,2.149,2.1513,2.152,2.1524,2.153,2.1475,2.1566,2.1714,2.1731,2.1535,2.1533,2.1531,0,2.1254,2.1315,2.1377,2.1391,2.1413,2.1443,2.1454,2.1474,2.1498,2.1529,2.1545,2.1582,2.1602,2.1632,2.1628,2.1592,2.1707,2.1656,2.171,2.1711,2.1737,2.1735,2.1893,2.1748,2.1748,2.1748,2.1747,0,2.1369,2.1426,2.1419,2.1458,2.1521,2.1509,2.1572,2.158,2.1599,2.164,2.1616,2.1655,2.1646,2.1686,2.1683,2.1748,2.1757,2.176,2.1759,2.1764,2.1764,2.1779,2.1773,2.1752,2.1751,2.175,2.1749,0,2.1484,2.1481,2.1548,2.1564,2.157,2.1616,2.1631,2.1668,2.167,2.1722,2.1734,2.1738,2.1784,2.1782,2.1834,2.1832,2.1913,2.1902,2.1905,2.1903,2.1958,2.1954,2.2133,2.2157,2.1995,2.1996,2.1998,0,2.1559,2.1602,2.1623,2.1648,2.1662,2.1703,2.1727,2.1717,2.1744,2.1775,2.181,2.1853,2.1887,2.1962,2.1971,2.2011,2.2003,2.2063,2.2009,2.2013,2.2007,2.2005,2.201,2.2074,2.2076,2.2077,2.2078,0,2.1693,2.169,2.1725,2.1762,2.1791,2.1819,2.1845,2.1868,2.1861,2.1893,2.1939,2.1966,2.2019,2.2064,2.2103,2.2116,2.2098,2.2095,2.211,2.2116,2.2117,2.2119,2.1936,2.2091,2.209,2.2089,2.2088,2.2088,2.1791,2.1829,2.1851,2.1892,2.191,2.1935,2.1972,2.1979,2.2017,2.2059,2.2051,2.2104,2.2129,2.2179,2.2196,2.2239,2.2218,2.2239,2.2245,2.2251,2.2258,2.2108,2.2246,2.2245,2.2245,2.2245,2.2244,0,2.1926,2.1939,2.1977,2.2014,2.2047,2.2025,2.2053,2.2083,2.2129,2.2153,2.2187,2.2242,2.2286,2.2298,2.2341,2.2373,2.2365,2.2384,2.2383,2.2387,2.2273,2.2257,2.239,2.239,2.239,2.239,2.239,2.239,2.2,2.2064,2.2064,2.2137,2.215,2.2201,2.2219,2.2243,2.2262,2.2324,2.236,2.2367,2.2388,2.2432,2.2472,2.2475,2.2492,2.2516,2.2515,2.2409,2.2395,2.2381,2.2365,2.2519,2.2519,2.2626,2.2627,2.2627]},{"header":{"parameterUnit":"m.s-1","parameterCategory":1,"la1":30.2991,"la2":30.254,"lo1":-89.0895,"lo2":-89.0444,"dy":0.0017,"dx":0.0017,"nx":28,"ny":28,"refTime":"2025-11-26T03:00:00:Z","depth":0,"parameterNumber":3,"parameterNumberName":"V-component_of_WINDS"},"data":[0,0,0,0,0,0,0,0,0,0,0,0,0,0,0,0,0,0,0,0,0,0,0,0,0,0,0,0,0,0,0,0,0,0,0,0,0,0,0,0,0,0,0,0,0,0,0,0,0,0,0,0,0,0,0,0,0,0,-1.5404,-1.5404,0,-1.5387,-1.5387,-1.5387,-1.5393,-1.5393,-1.5394,-1.5394,-1.5376,-1.5375,-1.5374,0,0,0,0,0,0,0,0,0,0,0,0,0,-1.544,-1.5439,-1.5404,-1.5404,-1.5403,-1.5387,-1.5387,-1.5387,-1.5393,-1.5394,-1.5394,-1.5394,-1.5376,-1.5375,-1.5374,0,0,0,0,0,0,0,0,0,0,0,0,0,-1.5424,-1.5439,-1.5404,-1.5405,-1.5405,-1.5387,-1.5387,-1.5387,-1.5393,-1.5394,-1.5394,-1.5395,-1.5376,-1.5375,-1.5374,-1.5354,0,0,-1.537,-1.5369,0,0,0,0,0,0,0,0,-1.5425,-1.5422,-1.5405,-1.5405,-1.5404,-1.5393,-1.5393,-1.5376,-1.5393,-1.5397,-1.5394,-1.5395,-1.5381,-1.5379,-1.5375,-1.5353,-1.5353,-1.537,-1.5369,-1.5369,-1.5368,0,0,0,0,0,0,0,-1.5426,-1.5423,-1.5397,-1.5404,-1.5404,-1.5405,-1.5404,-1.539,-1.5386,-1.5397,-1.5397,-1.5395,-1.5381,-1.5376,-1.5374,-1.5352,-1.537,-1.5369,-1.5368,-1.5367,-1.5314,-1.5314,0,0,0,0,0,0,-1.5427,-1.5424,-1.5398,-1.5397,-1.5416,-1.5404,-1.5402,-1.5396,-1.5386,-1.5385,-1.5395,-1.5396,-1.5378,-1.5376,-1.5374,-1.535,-1.5369,-1.5367,-1.5367,-1.5315,-1.5314,-1.5313,0,0,0,0,0,0,-1.5428,-1.5425,-1.5398,-1.541,-1.5407,-1.5403,-1.5396,-1.5395,-1.539,-1.5385,-1.5384,-1.5391,-1.5378,-1.5376,-1.5359,-1.535,-1.5367,-1.5366,-1.5316,-1.5315,-1.5314,-1.5303,0,0,0,0,0,0,-1.5429,-1.5425,-1.5418,-1.541,-1.5407,-1.5384,-1.5395,-1.5395,-1.5388,-1.5389,-1.538,-1.538,-1.5379,-1.5361,-1.5358,-1.5348,-1.5365,-1.5317,-1.5315,-1.5314,-1.5304,-1.5302,-1.53,0,0,0,0,0,-1.543,-1.5415,-1.5417,-1.5414,-1.5397,-1.5384,-1.5382,-1.5381,-1.5388,-1.538,-1.5376,-1.538,-1.5351,-1.5359,-1.5356,-1.5346,-1.5317,-1.5316,-1.5314,-1.5305,-1.5302,-1.53,0,0,0,0,0,0,-1.5421,-1.5414,-1.5416,-1.5399,-1.5392,-1.5385,-1.5375,-1.5378,-1.5369,-1.537,-1.537,-1.5367,-1.5351,-1.5347,-1.5356,-1.5326,-1.5335,-1.5333,-1.533,-1.5327,-1.5325,-1.5326,-1.5364,0,0,0,0,0,-1.5417,-1.5407,-1.5401,-1.5386,-1.5382,-1.5379,-1.5373,-1.5374,-1.5367,-1.5364,-1.5359,-1.5351,-1.534,-1.5333,-1.5323,-1.5304,-1.5302,-1.5295,-1.5293,-1.5291,-1.5289,-1.5278,-1.5275,-1.5309,-1.5309,-1.5309,0,0,-1.5408,-1.5403,-1.5396,-1.5384,-1.5379,-1.5368,-1.5377,-1.5365,-1.5357,-1.5362,-1.5346,-1.5342,-1.5334,-1.5316,-1.5308,-1.5312,-1.528,-1.5289,-1.5288,-1.5287,-1.5277,-1.5273,-1.5271,-1.5308,-1.5308,-1.5308,0,0,-1.5386,-1.5382,-1.5369,-1.5363,-1.5356,-1.5354,-1.5351,-1.5344,-1.5342,-1.5326,-1.5329,-1.5319,-1.5301,-1.5295,-1.529,-1.5266,-1.5269,-1.5263,-1.5251,-1.5241,-1.5238,-1.5236,-1.5228,-1.5225,-1.5261,-1.5261,-1.5261,0,-1.5376,-1.5361,-1.5361,-1.5349,-1.5344,-1.5348,-1.5335,-1.5329,-1.5318,-1.5314,-1.5319,-1.5297,-1.5291,-1.5272,-1.5266,-1.5262,-1.5258,-1.5264,-1.5239,-1.5236,-1.5234,-1.5226,-1.5223,-1.526,-1.5261,-1.5261,-1.5261,0,-1.5349,-1.5338,-1.5328,-1.5318,-1.5311,-1.5298,-1.5297,-1.529,-1.5291,-1.5289,-1.5273,-1.5266,-1.5255,-1.5251,-1.5251,-1.5231,-1.5234,-1.5239,-1.5248,-1.523,-1.5223,-1.522,-1.5259,-1.526,-1.526,-1.526,0,0,-1.532,-1.5311,-1.5308,-1.5303,-1.5295,-1.5287,-1.5274,-1.5264,-1.5258,-1.525,-1.5239,-1.5224,-1.5229,-1.5222,-1.5222,-1.5213,-1.5195,-1.5219,-1.5219,-1.5215,-1.5173,-1.5169,-1.5166,-1.5197,-1.5197,-1.5196,-1.5173,0,-1.5298,-1.5276,-1.5277,-1.5257,-1.5247,-1.5251,-1.524,-1.5234,-1.5231,-1.5222,-1.5219,-1.5208,-1.5215,-1.5212,-1.5203,-1.5199,-1.5187,-1.5201,-1.5187,-1.5186,-1.5189,-1.5162,-1.5158,-1.5136,-1.517,-1.517,-1.517,0,-1.5269,-1.5261,-1.524,-1.5234,-1.523,-1.522,-1.5211,-1.5202,-1.5195,-1.5194,-1.5187,-1.5189,-1.5176,-1.5185,-1.5167,-1.5177,-1.5171,-1.5168,-1.5168,-1.5166,-1.5177,-1.5159,-1.513,-1.5126,-1.5165,-1.5165,-1.5166,0,-1.525,-1.5234,-1.522,-1.5216,-1.5209,-1.5202,-1.5198,-1.5192,-1.5186,-1.5177,-1.5173,-1.5163,-1.5158,-1.515,-1.5149,-1.5156,-1.513,-1.514,-1.5129,-1.5129,-1.5123,-1.5123,-1.5092,-1.512,-1.512,-1.512,-1.512,0,-1.5225,-1.5212,-1.5212,-1.5203,-1.5188,-1.5189,-1.5174,-1.5171,-1.5166,-1.5156,-1.5159,-1.515,-1.5149,-1.5139,-1.5138,-1.5123,-1.512,-1.5119,-1.5119,-1.5118,-1.5119,-1.5114,-1.5116,-1.5119,-1.5119,-1.5119,-1.5119,0,-1.5202,-1.5201,-1.5185,-1.518,-1.5178,-1.5168,-1.5163,-1.5154,-1.5152,-1.514,-1.5137,-1.5134,-1.5122,-1.5121,-1.5107,-1.5106,-1.5089,-1.509,-1.5091,-1.5091,-1.508,-1.5081,-1.5045,-1.504,-1.5071,-1.5071,-1.5071,0,-1.5186,-1.5176,-1.517,-1.5164,-1.516,-1.515,-1.5144,-1.5144,-1.5138,-1.5129,-1.5122,-1.5111,-1.5102,-1.5084,-1.508,-1.507,-1.5071,-1.5059,-1.5069,-1.507,-1.5071,-1.5071,-1.507,-1.5057,-1.5057,-1.5056,-1.5056,0,-1.5157,-1.5158,-1.5149,-1.514,-1.5133,-1.5126,-1.512,-1.5115,-1.5114,-1.5106,-1.5095,-1.5089,-1.5075,-1.5064,-1.5054,-1.505,-1.5053,-1.5053,-1.505,-1.5049,-1.505,-1.505,-1.5085,-1.5054,-1.5054,-1.5054,-1.5054,-1.5054,-1.5137,-1.5129,-1.5123,-1.5114,-1.5109,-1.5103,-1.5094,-1.5092,-1.5083,-1.5072,-1.5073,-1.5061,-1.5054,-1.5041,-1.5036,-1.5026,-1.503,-1.5025,-1.5024,-1.5023,-1.5022,-1.5052,-1.5024,-1.5024,-1.5024,-1.5025,-1.5025,0,-1.5109,-1.5106,-1.5097,-1.5088,-1.5081,-1.5085,-1.5077,-1.5071,-1.506,-1.5054,-1.5046,-1.5033,-1.5022,-1.5018,-1.5008,-1.5001,-1.5002,-1.4998,-1.4998,-1.4997,-1.5019,-1.5023,-1.4997,-1.4997,-1.4997,-1.4997,-1.4997,-1.4997,-1.5093,-1.508,-1.5079,-1.5063,-1.506,-1.5048,-1.5044,-1.5038,-1.5033,-1.5019,-1.5011,-1.5008,-1.5002,-1.4992,-1.4982,-1.4981,-1.4977,-1.4973,-1.4973,-1.4993,-1.4996,-1.4998,-1.5002,-1.4972,-1.4972,-1.4951,-1.4951,-1.4951]}]]